ATLAS CENTAUR 2 DEB, 700

Orbit data source: Space-Track

ATLAS CENTAUR 2 DEB, 700 is space debris in LEO originally from a launch on Wed, 27 Nov 1963 UTC launched from the Air Force Eastern Test Range (AFETR). Debris objects in space refer to the collection of defunct objects orbiting the Earth. Examples of debris include non-operational satellites, rocket bodies, and fragments generated from explosions, collisions, or faulty payload assembly.

Loading next visibility...
Identifier
700, 1963-047F
Orbit
LEO
Last TLE update
1 day ago
Origin
Manufacturer
GD/Convair
Mission
Spacecraft
Bus & Motor
CENTAUR PART, Unknown motor
Mass
Unknown
Launch date (UTC)
1963-11-27 (62 years ago)
Launch vehicle
Unknown
Launch site
Air Force Eastern Test Range (AFETR)
Object type
Payload
Rocket body
Debris
Shape & HBR
Unknown
Radar Cross Section
0.510 m², Medium (>0.1 m² and < 1m²)

Expand to show TLE details & history

TLE from 1 day ago
0 ATLAS CENTAUR 2 DEB
1 00700U 63047F   25181.71138173  .00000323  00000-0  92796-4 0  9990
2 00700  30.4849 335.5803 0718292 220.0986 134.4388 13.39966779  2957
Epoch: 2025-06-30T17:04Z
TLE epoch observation values (Epoch: 2025-06-30T17:04:23.381Z)
Latitude
-0.00002°
Longitude
160.46558°
Altitude
1,502.688 km
Speed
6.925 km/s
True Right ascension
22h 22m 19s
True Declination
0° 00' 00"
Sunlit
Object was in daylight at epoch
Visualization orbit readout
Latitude
2.63543°
Longitude
159.75112°
Altitude
1,481.816 km
Speed
6.945 km/s
Apparent Right ascension
20h 39m 02s
Apparent Declination
-19° 07' 39"
Sunlit
Object is in daylight
Visualization observer readout
Local Sidereal Time
05:47:37
Azimuth
286.73° WNW
Elevation
-47.86°
Doppler factor
1
Orbital elements
Apogee altitude
1,651.134 km
Perigee altitude
574.962 km
Semi-major axis
7,491.185 km
Eccentricity
0.07183
Inclination
30.4849°
RAAN
335.5803°
Arg. of periapsis
220.0986°
True anomaly
Unknown
Mean anomaly
134.4388°
Eccentric anomaly
Unknown
Mean motion
3.34748 °/min
Orbital period
107.54 mins
BSTAR
0.000092796
Loading maneuver chart data...
Loading SW <> Apogee altitude chart data...

ATLAS CENTAUR 2 DEB Visibility forecast

Observer location: undefined°, undefined°

Span
Click to sort rows by Start time (UTC) header in descending order
Start Az.
Max El. time (UTC)
Max El. Az.
Max El.
End time (UTC)
End Az.
13 mins2025-07-01 18:37:55.218Z257.774° W2025-07-01 18:44:55.218Z205.41° SW26.615°2025-07-01 18:50:55.218Z147.494° SSE
13 mins2025-07-02 12:08:55.218Z190.773° SSW2025-07-02 12:14:55.218Z150.09° SSE21.241°2025-07-02 12:21:55.218Z105.815° ESE
17 mins2025-07-02 14:00:55.218Z227.512° WSW2025-07-02 14:08:55.218Z170.097° S33.168°2025-07-02 14:17:55.218Z101.252° ESE
16 mins2025-07-02 15:55:55.218Z248.155° W2025-07-02 16:03:55.218Z184.283° SSW36.574°2025-07-02 16:11:55.218Z113.217° SE
13 mins2025-07-02 17:51:55.218Z253.834° W2025-07-02 17:58:55.218Z192.954° SSW30.032°2025-07-02 18:04:55.218Z139.242° SSE
|